<?xml version="1.0" encoding="UTF-8" standalone="no" ?>
<gpx xmlns="http://www.topografix.com/GPX/1/1" xmlns:xsi="http://www.w3.org/2001/XMLSchema-instance" xsi:schemaLocation="http://www.topografix.com/GPX/1/1 http://www.topografix.com/GPX/1/1/gpx.xsd" version="1.1" creator="VisuGPX - https://www.visugpx.com">
  <metadata>
    <name>VTT Sud Bourgogne</name>
    <desc><![CDATA[Cluny - Tournus : circuits VTT XC]]></desc>
  </metadata>
  <trk>
    <name><![CDATA[11 - LE_VIGNOBLE_PAR_BURGY_ET_CLESSE - Rouge]]></name>
    <extensions>
      <line xmlns="http://www.topografix.com/GPX/gpx_style/0/2">
        <color>faab00</color>
        <width>4</width>
      </line>
    </extensions>
    <trkseg>
      <trkpt lat="46.44646" lon="4.88571">
        <ele>173</ele>
        <time>2020-09-22T10:09:14Z</time>
      </trkpt>
      <trkpt lat="46.44641" lon="4.88566">
        <ele>173</ele>
        <time>2020-09-22T10:09:15Z</time>
      </trkpt>
      <trkpt lat="46.44629" lon="4.88561">
        <ele>172</ele>
        <time>2020-09-22T10:09:18Z</time>
      </trkpt>
      <trkpt lat="46.44607" lon="4.88561">
        <ele>172</ele>
        <time>2020-09-22T10:09:23Z</time>
      </trkpt>
      <trkpt lat="46.44595" lon="4.88564">
        <ele>172</ele>
        <time>2020-09-22T10:09:26Z</time>
      </trkpt>
      <trkpt lat="46.44588" lon="4.88569">
        <ele>172</ele>
        <time>2020-09-22T10:09:28Z</time>
      </trkpt>
      <trkpt lat="46.44581" lon="4.88587">
        <ele>172</ele>
        <time>2020-09-22T10:09:31Z</time>
      </trkpt>
      <trkpt lat="46.44566" lon="4.88654">
        <ele>170</ele>
        <time>2020-09-22T10:09:43Z</time>
      </trkpt>
      <trkpt lat="46.4456" lon="4.88664">
        <ele>170</ele>
        <time>2020-09-22T10:09:45Z</time>
      </trkpt>
      <trkpt lat="46.44551" lon="4.88664">
        <ele>170</ele>
        <time>2020-09-22T10:09:47Z</time>
      </trkpt>
      <trkpt lat="46.44506" lon="4.88626">
        <ele>171</ele>
        <time>2020-09-22T10:09:59Z</time>
      </trkpt>
      <trkpt lat="46.44491" lon="4.8861">
        <ele>171</ele>
        <time>2020-09-22T10:10:04Z</time>
      </trkpt>
      <trkpt lat="46.44455" lon="4.88548">
        <ele>172</ele>
        <time>2020-09-22T10:10:17Z</time>
      </trkpt>
      <trkpt lat="46.44455" lon="4.88508">
        <ele>172</ele>
        <time>2020-09-22T10:10:23Z</time>
      </trkpt>
      <trkpt lat="46.4442" lon="4.88426">
        <ele>172</ele>
        <time>2020-09-22T10:10:39Z</time>
      </trkpt>
      <trkpt lat="46.44406" lon="4.88418">
        <ele>172</ele>
        <time>2020-09-22T10:10:42Z</time>
      </trkpt>
      <trkpt lat="46.44397" lon="4.88418">
        <ele>172</ele>
        <time>2020-09-22T10:10:44Z</time>
      </trkpt>
      <trkpt lat="46.4435" lon="4.88444">
        <ele>171</ele>
        <time>2020-09-22T10:10:56Z</time>
      </trkpt>
      <trkpt lat="46.44336" lon="4.88446">
        <ele>171</ele>
        <time>2020-09-22T10:10:59Z</time>
      </trkpt>
      <trkpt lat="46.44352" lon="4.88419">
        <ele>171</ele>
        <time>2020-09-22T10:11:05Z</time>
      </trkpt>
      <trkpt lat="46.44364" lon="4.88412">
        <ele>171</ele>
        <time>2020-09-22T10:11:08Z</time>
      </trkpt>
      <trkpt lat="46.44376" lon="4.8841">
        <ele>172</ele>
        <time>2020-09-22T10:11:11Z</time>
      </trkpt>
      <trkpt lat="46.44385" lon="4.88397">
        <ele>172</ele>
        <time>2020-09-22T10:11:14Z</time>
      </trkpt>
      <trkpt lat="46.44386" lon="4.8838">
        <ele>173</ele>
        <time>2020-09-22T10:11:16Z</time>
      </trkpt>
      <trkpt lat="46.44384" lon="4.88371">
        <ele>173</ele>
        <time>2020-09-22T10:11:18Z</time>
      </trkpt>
      <trkpt lat="46.44377" lon="4.88361">
        <ele>173</ele>
        <time>2020-09-22T10:11:20Z</time>
      </trkpt>
      <trkpt lat="46.44371" lon="4.88337">
        <ele>173</ele>
        <time>2020-09-22T10:11:24Z</time>
      </trkpt>
      <trkpt lat="46.44375" lon="4.8828">
        <ele>174</ele>
        <time>2020-09-22T10:11:34Z</time>
      </trkpt>
      <trkpt lat="46.44422" lon="4.88084">
        <ele>176</ele>
        <time>2020-09-22T10:12:07Z</time>
      </trkpt>
      <trkpt lat="46.44479" lon="4.8791">
        <ele>176</ele>
        <time>2020-09-22T10:12:38Z</time>
      </trkpt>
      <trkpt lat="46.44487" lon="4.87893">
        <ele>176</ele>
        <time>2020-09-22T10:12:41Z</time>
      </trkpt>
      <trkpt lat="46.44528" lon="4.8783">
        <ele>177</ele>
        <time>2020-09-22T10:12:55Z</time>
      </trkpt>
      <trkpt lat="46.44549" lon="4.87778">
        <ele>178</ele>
        <time>2020-09-22T10:13:05Z</time>
      </trkpt>
      <trkpt lat="46.44674" lon="4.87402">
        <ele>186</ele>
        <time>2020-09-22T10:14:12Z</time>
      </trkpt>
      <trkpt lat="46.44688" lon="4.87324">
        <ele>187</ele>
        <time>2020-09-22T10:14:25Z</time>
      </trkpt>
      <trkpt lat="46.44691" lon="4.87268">
        <ele>187</ele>
        <time>2020-09-22T10:14:34Z</time>
      </trkpt>
      <trkpt lat="46.4469" lon="4.87232">
        <ele>188</ele>
        <time>2020-09-22T10:14:40Z</time>
      </trkpt>
      <trkpt lat="46.44676" lon="4.87096">
        <ele>194</ele>
        <time>2020-09-22T10:15:02Z</time>
      </trkpt>
      <trkpt lat="46.44738" lon="4.87107">
        <ele>194</ele>
        <time>2020-09-22T10:15:17Z</time>
      </trkpt>
      <trkpt lat="46.4481" lon="4.87109">
        <ele>194</ele>
        <time>2020-09-22T10:15:33Z</time>
      </trkpt>
      <trkpt lat="46.44946" lon="4.86959">
        <ele>198</ele>
        <time>2020-09-22T10:16:13Z</time>
      </trkpt>
      <trkpt lat="46.44982" lon="4.86926">
        <ele>199</ele>
        <time>2020-09-22T10:16:23Z</time>
      </trkpt>
      <trkpt lat="46.45007" lon="4.86873">
        <ele>200</ele>
        <time>2020-09-22T10:16:34Z</time>
      </trkpt>
      <trkpt lat="46.45019" lon="4.86842">
        <ele>201</ele>
        <time>2020-09-22T10:16:39Z</time>
      </trkpt>
      <trkpt lat="46.45024" lon="4.86815">
        <ele>201</ele>
        <time>2020-09-22T10:16:44Z</time>
      </trkpt>
      <trkpt lat="46.45004" lon="4.86794">
        <ele>200</ele>
        <time>2020-09-22T10:16:50Z</time>
      </trkpt>
      <trkpt lat="46.44981" lon="4.86776">
        <ele>199</ele>
        <time>2020-09-22T10:16:56Z</time>
      </trkpt>
      <trkpt lat="46.44953" lon="4.86756">
        <ele>199</ele>
        <time>2020-09-22T10:17:03Z</time>
      </trkpt>
      <trkpt lat="46.44894" lon="4.8672">
        <ele>198</ele>
        <time>2020-09-22T10:17:18Z</time>
      </trkpt>
      <trkpt lat="46.44881" lon="4.86702">
        <ele>199</ele>
        <time>2020-09-22T10:17:22Z</time>
      </trkpt>
      <trkpt lat="46.44864" lon="4.86684">
        <ele>199</ele>
        <time>2020-09-22T10:17:27Z</time>
      </trkpt>
      <trkpt lat="46.4484" lon="4.86666">
        <ele>200</ele>
        <time>2020-09-22T10:17:33Z</time>
      </trkpt>
      <trkpt lat="46.44836" lon="4.86642">
        <ele>200</ele>
        <time>2020-09-22T10:17:37Z</time>
      </trkpt>
      <trkpt lat="46.44898" lon="4.86562">
        <ele>202</ele>
        <time>2020-09-22T10:17:57Z</time>
      </trkpt>
      <trkpt lat="46.44909" lon="4.86544">
        <ele>202</ele>
        <time>2020-09-22T10:18:01Z</time>
      </trkpt>
      <trkpt lat="46.44947" lon="4.86328">
        <ele>204</ele>
        <time>2020-09-22T10:18:36Z</time>
      </trkpt>
      <trkpt lat="46.44954" lon="4.86274">
        <ele>205</ele>
        <time>2020-09-22T10:18:45Z</time>
      </trkpt>
      <trkpt lat="46.44945" lon="4.86222">
        <ele>206</ele>
        <time>2020-09-22T10:18:54Z</time>
      </trkpt>
      <trkpt lat="46.44941" lon="4.86121">
        <ele>207</ele>
        <time>2020-09-22T10:19:10Z</time>
      </trkpt>
      <trkpt lat="46.44952" lon="4.86118">
        <ele>207</ele>
        <time>2020-09-22T10:19:13Z</time>
      </trkpt>
      <trkpt lat="46.45056" lon="4.86068">
        <ele>207</ele>
        <time>2020-09-22T10:19:38Z</time>
      </trkpt>
      <trkpt lat="46.45081" lon="4.86059">
        <ele>207</ele>
        <time>2020-09-22T10:19:44Z</time>
      </trkpt>
      <trkpt lat="46.4513" lon="4.86053">
        <ele>208</ele>
        <time>2020-09-22T10:19:56Z</time>
      </trkpt>
      <trkpt lat="46.45241" lon="4.86002">
        <ele>208</ele>
        <time>2020-09-22T10:20:23Z</time>
      </trkpt>
      <trkpt lat="46.45274" lon="4.85989">
        <ele>208</ele>
        <time>2020-09-22T10:20:31Z</time>
      </trkpt>
      <trkpt lat="46.45303" lon="4.85981">
        <ele>208</ele>
        <time>2020-09-22T10:20:38Z</time>
      </trkpt>
      <trkpt lat="46.45412" lon="4.85938">
        <ele>210</ele>
        <time>2020-09-22T10:21:04Z</time>
      </trkpt>
      <trkpt lat="46.45506" lon="4.85913">
        <ele>211</ele>
        <time>2020-09-22T10:21:27Z</time>
      </trkpt>
      <trkpt lat="46.45602" lon="4.85901">
        <ele>211</ele>
        <time>2020-09-22T10:21:49Z</time>
      </trkpt>
      <trkpt lat="46.45624" lon="4.85896">
        <ele>211</ele>
        <time>2020-09-22T10:21:54Z</time>
      </trkpt>
      <trkpt lat="46.45642" lon="4.85889">
        <ele>211</ele>
        <time>2020-09-22T10:21:59Z</time>
      </trkpt>
      <trkpt lat="46.45663" lon="4.85893">
        <ele>212</ele>
        <time>2020-09-22T10:22:04Z</time>
      </trkpt>
      <trkpt lat="46.45701" lon="4.8591">
        <ele>211</ele>
        <time>2020-09-22T10:22:13Z</time>
      </trkpt>
      <trkpt lat="46.45716" lon="4.85922">
        <ele>211</ele>
        <time>2020-09-22T10:22:17Z</time>
      </trkpt>
      <trkpt lat="46.45754" lon="4.85964">
        <ele>210</ele>
        <time>2020-09-22T10:22:28Z</time>
      </trkpt>
      <trkpt lat="46.45789" lon="4.85994">
        <ele>210</ele>
        <time>2020-09-22T10:22:38Z</time>
      </trkpt>
      <trkpt lat="46.45801" lon="4.85877">
        <ele>213</ele>
        <time>2020-09-22T10:22:57Z</time>
      </trkpt>
      <trkpt lat="46.45803" lon="4.85834">
        <ele>215</ele>
        <time>2020-09-22T10:23:04Z</time>
      </trkpt>
      <trkpt lat="46.45805" lon="4.85756">
        <ele>218</ele>
        <time>2020-09-22T10:23:16Z</time>
      </trkpt>
      <trkpt lat="46.458" lon="4.85741">
        <ele>219</ele>
        <time>2020-09-22T10:23:19Z</time>
      </trkpt>
      <trkpt lat="46.45825" lon="4.85749">
        <ele>218</ele>
        <time>2020-09-22T10:23:25Z</time>
      </trkpt>
      <trkpt lat="46.45889" lon="4.85753">
        <ele>217</ele>
        <time>2020-09-22T10:23:40Z</time>
      </trkpt>
      <trkpt lat="46.45936" lon="4.85782">
        <ele>215</ele>
        <time>2020-09-22T10:23:52Z</time>
      </trkpt>
      <trkpt lat="46.4595" lon="4.85787">
        <ele>214</ele>
        <time>2020-09-22T10:23:55Z</time>
      </trkpt>
      <trkpt lat="46.46007" lon="4.85799">
        <ele>212</ele>
        <time>2020-09-22T10:24:09Z</time>
      </trkpt>
      <trkpt lat="46.46093" lon="4.85828">
        <ele>211</ele>
        <time>2020-09-22T10:24:29Z</time>
      </trkpt>
      <trkpt lat="46.46224" lon="4.85812">
        <ele>211</ele>
        <time>2020-09-22T10:25:00Z</time>
      </trkpt>
      <trkpt lat="46.463" lon="4.85807">
        <ele>210</ele>
        <time>2020-09-22T10:25:18Z</time>
      </trkpt>
      <trkpt lat="46.46318" lon="4.85808">
        <ele>210</ele>
        <time>2020-09-22T10:25:22Z</time>
      </trkpt>
      <trkpt lat="46.46607" lon="4.85944">
        <ele>212</ele>
        <time>2020-09-22T10:26:33Z</time>
      </trkpt>
      <trkpt lat="46.46672" lon="4.85988">
        <ele>213</ele>
        <time>2020-09-22T10:26:49Z</time>
      </trkpt>
      <trkpt lat="46.46699" lon="4.86013">
        <ele>214</ele>
        <time>2020-09-22T10:26:57Z</time>
      </trkpt>
      <trkpt lat="46.4675" lon="4.86044">
        <ele>215</ele>
        <time>2020-09-22T10:27:10Z</time>
      </trkpt>
      <trkpt lat="46.46784" lon="4.8606">
        <ele>214</ele>
        <time>2020-09-22T10:27:18Z</time>
      </trkpt>
      <trkpt lat="46.46793" lon="4.86054">
        <ele>214</ele>
        <time>2020-09-22T10:27:21Z</time>
      </trkpt>
      <trkpt lat="46.46807" lon="4.8599">
        <ele>213</ele>
        <time>2020-09-22T10:27:31Z</time>
      </trkpt>
      <trkpt lat="46.46821" lon="4.85946">
        <ele>212</ele>
        <time>2020-09-22T10:27:39Z</time>
      </trkpt>
      <trkpt lat="46.46883" lon="4.8582">
        <ele>214</ele>
        <time>2020-09-22T10:28:04Z</time>
      </trkpt>
      <trkpt lat="46.46923" lon="4.85757">
        <ele>214</ele>
        <time>2020-09-22T10:28:18Z</time>
      </trkpt>
      <trkpt lat="46.46935" lon="4.85747">
        <ele>214</ele>
        <time>2020-09-22T10:28:21Z</time>
      </trkpt>
      <trkpt lat="46.46939" lon="4.85747">
        <ele>214</ele>
        <time>2020-09-22T10:28:22Z</time>
      </trkpt>
      <trkpt lat="46.4695" lon="4.85752">
        <ele>214</ele>
        <time>2020-09-22T10:28:25Z</time>
      </trkpt>
      <trkpt lat="46.4696" lon="4.8577">
        <ele>213</ele>
        <time>2020-09-22T10:28:28Z</time>
      </trkpt>
      <trkpt lat="46.46977" lon="4.85786">
        <ele>213</ele>
        <time>2020-09-22T10:28:33Z</time>
      </trkpt>
      <trkpt lat="46.47063" lon="4.85841">
        <ele>212</ele>
        <time>2020-09-22T10:28:55Z</time>
      </trkpt>
      <trkpt lat="46.47132" lon="4.85861">
        <ele>209</ele>
        <time>2020-09-22T10:29:12Z</time>
      </trkpt>
      <trkpt lat="46.47194" lon="4.85875">
        <ele>207</ele>
        <time>2020-09-22T10:29:26Z</time>
      </trkpt>
      <trkpt lat="46.4724" lon="4.85891">
        <ele>204</ele>
        <time>2020-09-22T10:29:37Z</time>
      </trkpt>
      <trkpt lat="46.47257" lon="4.859">
        <ele>203</ele>
        <time>2020-09-22T10:29:41Z</time>
      </trkpt>
      <trkpt lat="46.47369" lon="4.85981">
        <ele>198</ele>
        <time>2020-09-22T10:30:11Z</time>
      </trkpt>
      <trkpt lat="46.47385" lon="4.85987">
        <ele>198</ele>
        <time>2020-09-22T10:30:15Z</time>
      </trkpt>
      <trkpt lat="46.47411" lon="4.85991">
        <ele>198</ele>
        <time>2020-09-22T10:30:21Z</time>
      </trkpt>
      <trkpt lat="46.47402" lon="4.85969">
        <ele>198</ele>
        <time>2020-09-22T10:30:25Z</time>
      </trkpt>
      <trkpt lat="46.47385" lon="4.85869">
        <ele>202</ele>
        <time>2020-09-22T10:30:41Z</time>
      </trkpt>
      <trkpt lat="46.47386" lon="4.85854">
        <ele>202</ele>
        <time>2020-09-22T10:30:44Z</time>
      </trkpt>
      <trkpt lat="46.47395" lon="4.85837">
        <ele>203</ele>
        <time>2020-09-22T10:30:47Z</time>
      </trkpt>
      <trkpt lat="46.47397" lon="4.85823">
        <ele>204</ele>
        <time>2020-09-22T10:30:49Z</time>
      </trkpt>
      <trkpt lat="46.47365" lon="4.85667">
        <ele>209</ele>
        <time>2020-09-22T10:31:16Z</time>
      </trkpt>
      <trkpt lat="46.47352" lon="4.85622">
        <ele>211</ele>
        <time>2020-09-22T10:31:24Z</time>
      </trkpt>
      <trkpt lat="46.47345" lon="4.85575">
        <ele>212</ele>
        <time>2020-09-22T10:31:31Z</time>
      </trkpt>
      <trkpt lat="46.47341" lon="4.855">
        <ele>212</ele>
        <time>2020-09-22T10:31:43Z</time>
      </trkpt>
      <trkpt lat="46.47336" lon="4.85475">
        <ele>212</ele>
        <time>2020-09-22T10:31:48Z</time>
      </trkpt>
      <trkpt lat="46.47317" lon="4.85436">
        <ele>213</ele>
        <time>2020-09-22T10:31:55Z</time>
      </trkpt>
      <trkpt lat="46.473" lon="4.85418">
        <ele>215</ele>
        <time>2020-09-22T10:32:00Z</time>
      </trkpt>
      <trkpt lat="46.4725" lon="4.85376">
        <ele>219</ele>
        <time>2020-09-22T10:32:14Z</time>
      </trkpt>
      <trkpt lat="46.47244" lon="4.85368">
        <ele>219</ele>
        <time>2020-09-22T10:32:16Z</time>
      </trkpt>
      <trkpt lat="46.47235" lon="4.85344">
        <ele>221</ele>
        <time>2020-09-22T10:32:20Z</time>
      </trkpt>
      <trkpt lat="46.4723" lon="4.85337">
        <ele>221</ele>
        <time>2020-09-22T10:32:22Z</time>
      </trkpt>
      <trkpt lat="46.47199" lon="4.85309">
        <ele>223</ele>
        <time>2020-09-22T10:32:30Z</time>
      </trkpt>
      <trkpt lat="46.47191" lon="4.85297">
        <ele>224</ele>
        <time>2020-09-22T10:32:33Z</time>
      </trkpt>
      <trkpt lat="46.47187" lon="4.85279">
        <ele>225</ele>
        <time>2020-09-22T10:32:36Z</time>
      </trkpt>
      <trkpt lat="46.4719" lon="4.8523">
        <ele>227</ele>
        <time>2020-09-22T10:32:44Z</time>
      </trkpt>
      <trkpt lat="46.47189" lon="4.85199">
        <ele>227</ele>
        <time>2020-09-22T10:32:49Z</time>
      </trkpt>
      <trkpt lat="46.47184" lon="4.85176">
        <ele>228</ele>
        <time>2020-09-22T10:32:53Z</time>
      </trkpt>
      <trkpt lat="46.47175" lon="4.85159">
        <ele>229</ele>
        <time>2020-09-22T10:32:56Z</time>
      </trkpt>
      <trkpt lat="46.47171" lon="4.85164">
        <ele>229</ele>
        <time>2020-09-22T10:32:57Z</time>
      </trkpt>
      <trkpt lat="46.47145" lon="4.85162">
        <ele>230</ele>
        <time>2020-09-22T10:33:03Z</time>
      </trkpt>
      <trkpt lat="46.47104" lon="4.8515">
        <ele>231</ele>
        <time>2020-09-22T10:33:13Z</time>
      </trkpt>
      <trkpt lat="46.47043" lon="4.85121">
        <ele>232</ele>
        <time>2020-09-22T10:33:28Z</time>
      </trkpt>
      <trkpt lat="46.47015" lon="4.85115">
        <ele>231</ele>
        <time>2020-09-22T10:33:35Z</time>
      </trkpt>
      <trkpt lat="46.47009" lon="4.85116">
        <ele>231</ele>
        <time>2020-09-22T10:33:36Z</time>
      </trkpt>
      <trkpt lat="46.47001" lon="4.85008">
        <ele>233</ele>
        <time>2020-09-22T10:33:54Z</time>
      </trkpt>
      <trkpt lat="46.46986" lon="4.84961">
        <ele>234</ele>
        <time>2020-09-22T10:34:02Z</time>
      </trkpt>
      <trkpt lat="46.46984" lon="4.84947">
        <ele>234</ele>
        <time>2020-09-22T10:34:04Z</time>
      </trkpt>
      <trkpt lat="46.46985" lon="4.84924">
        <ele>235</ele>
        <time>2020-09-22T10:34:08Z</time>
      </trkpt>
      <trkpt lat="46.46994" lon="4.84894">
        <ele>235</ele>
        <time>2020-09-22T10:34:13Z</time>
      </trkpt>
      <trkpt lat="46.47022" lon="4.8483">
        <ele>236</ele>
        <time>2020-09-22T10:34:25Z</time>
      </trkpt>
      <trkpt lat="46.47034" lon="4.84811">
        <ele>236</ele>
        <time>2020-09-22T10:34:30Z</time>
      </trkpt>
      <trkpt lat="46.4705" lon="4.84793">
        <ele>237</ele>
        <time>2020-09-22T10:34:34Z</time>
      </trkpt>
      <trkpt lat="46.47065" lon="4.84781">
        <ele>237</ele>
        <time>2020-09-22T10:34:38Z</time>
      </trkpt>
      <trkpt lat="46.4716" lon="4.84738">
        <ele>239</ele>
        <time>2020-09-22T10:35:01Z</time>
      </trkpt>
      <trkpt lat="46.47169" lon="4.84731">
        <ele>239</ele>
        <time>2020-09-22T10:35:04Z</time>
      </trkpt>
      <trkpt lat="46.47175" lon="4.84724">
        <ele>239</ele>
        <time>2020-09-22T10:35:06Z</time>
      </trkpt>
      <trkpt lat="46.47187" lon="4.84694">
        <ele>240</ele>
        <time>2020-09-22T10:35:11Z</time>
      </trkpt>
      <trkpt lat="46.47198" lon="4.84638">
        <ele>242</ele>
        <time>2020-09-22T10:35:21Z</time>
      </trkpt>
      <trkpt lat="46.47197" lon="4.84605">
        <ele>242</ele>
        <time>2020-09-22T10:35:26Z</time>
      </trkpt>
      <trkpt lat="46.47174" lon="4.84555">
        <ele>243</ele>
        <time>2020-09-22T10:35:36Z</time>
      </trkpt>
      <trkpt lat="46.47145" lon="4.84462">
        <ele>242</ele>
        <time>2020-09-22T10:35:52Z</time>
      </trkpt>
      <trkpt lat="46.47138" lon="4.84429">
        <ele>241</ele>
        <time>2020-09-22T10:35:58Z</time>
      </trkpt>
      <trkpt lat="46.47129" lon="4.84365">
        <ele>240</ele>
        <time>2020-09-22T10:36:08Z</time>
      </trkpt>
      <trkpt lat="46.47132" lon="4.84327">
        <ele>239</ele>
        <time>2020-09-22T10:36:14Z</time>
      </trkpt>
      <trkpt lat="46.47157" lon="4.84279">
        <ele>237</ele>
        <time>2020-09-22T10:36:24Z</time>
      </trkpt>
      <trkpt lat="46.47203" lon="4.84204">
        <ele>239</ele>
        <time>2020-09-22T10:36:40Z</time>
      </trkpt>
      <trkpt lat="46.47214" lon="4.84176">
        <ele>240</ele>
        <time>2020-09-22T10:36:45Z</time>
      </trkpt>
      <trkpt lat="46.47217" lon="4.84154">
        <ele>240</ele>
        <time>2020-09-22T10:36:49Z</time>
      </trkpt>
      <trkpt lat="46.47217" lon="4.84118">
        <ele>241</ele>
        <time>2020-09-22T10:36:55Z</time>
      </trkpt>
      <trkpt lat="46.47204" lon="4.84048">
        <ele>244</ele>
        <time>2020-09-22T10:37:06Z</time>
      </trkpt>
      <trkpt lat="46.47203" lon="4.84032">
        <ele>244</ele>
        <time>2020-09-22T10:37:09Z</time>
      </trkpt>
      <trkpt lat="46.47214" lon="4.83864">
        <ele>247</ele>
        <time>2020-09-22T10:37:36Z</time>
      </trkpt>
      <trkpt lat="46.47211" lon="4.8373">
        <ele>254</ele>
        <time>2020-09-22T10:37:58Z</time>
      </trkpt>
      <trkpt lat="46.47194" lon="4.8364">
        <ele>257</ele>
        <time>2020-09-22T10:38:13Z</time>
      </trkpt>
      <trkpt lat="46.47176" lon="4.83572">
        <ele>259</ele>
        <time>2020-09-22T10:38:24Z</time>
      </trkpt>
      <trkpt lat="46.47167" lon="4.83577">
        <ele>260</ele>
        <time>2020-09-22T10:38:27Z</time>
      </trkpt>
      <trkpt lat="46.47152" lon="4.83579">
        <ele>262</ele>
        <time>2020-09-22T10:38:30Z</time>
      </trkpt>
      <trkpt lat="46.47105" lon="4.83529">
        <ele>267</ele>
        <time>2020-09-22T10:38:44Z</time>
      </trkpt>
      <trkpt lat="46.47066" lon="4.83503">
        <ele>271</ele>
        <time>2020-09-22T10:38:54Z</time>
      </trkpt>
      <trkpt lat="46.47069" lon="4.83498">
        <ele>270</ele>
        <time>2020-09-22T10:38:55Z</time>
      </trkpt>
      <trkpt lat="46.47069" lon="4.83492">
        <ele>270</ele>
        <time>2020-09-22T10:38:56Z</time>
      </trkpt>
      <trkpt lat="46.47063" lon="4.83483">
        <ele>270</ele>
        <time>2020-09-22T10:38:58Z</time>
      </trkpt>
      <trkpt lat="46.47006" lon="4.83416">
        <ele>275</ele>
        <time>2020-09-22T10:39:15Z</time>
      </trkpt>
      <trkpt lat="46.46973" lon="4.83393">
        <ele>276</ele>
        <time>2020-09-22T10:39:23Z</time>
      </trkpt>
      <trkpt lat="46.46926" lon="4.83351">
        <ele>275</ele>
        <time>2020-09-22T10:39:36Z</time>
      </trkpt>
      <trkpt lat="46.46908" lon="4.83341">
        <ele>274</ele>
        <time>2020-09-22T10:39:41Z</time>
      </trkpt>
      <trkpt lat="46.46893" lon="4.83329">
        <ele>273</ele>
        <time>2020-09-22T10:39:45Z</time>
      </trkpt>
      <trkpt lat="46.4675" lon="4.83327">
        <ele>280</ele>
        <time>2020-09-22T10:40:18Z</time>
      </trkpt>
      <trkpt lat="46.46723" lon="4.8332">
        <ele>283</ele>
        <time>2020-09-22T10:40:25Z</time>
      </trkpt>
      <trkpt lat="46.46698" lon="4.83306">
        <ele>285</ele>
        <time>2020-09-22T10:40:31Z</time>
      </trkpt>
      <trkpt lat="46.46693" lon="4.83359">
        <ele>290</ele>
        <time>2020-09-22T10:40:39Z</time>
      </trkpt>
      <trkpt lat="46.46677" lon="4.83407">
        <ele>297</ele>
        <time>2020-09-22T10:40:48Z</time>
      </trkpt>
      <trkpt lat="46.46667" lon="4.83419">
        <ele>299</ele>
        <time>2020-09-22T10:40:51Z</time>
      </trkpt>
      <trkpt lat="46.46662" lon="4.83437">
        <ele>303</ele>
        <time>2020-09-22T10:40:54Z</time>
      </trkpt>
      <trkpt lat="46.46669" lon="4.83492">
        <ele>310</ele>
        <time>2020-09-22T10:41:03Z</time>
      </trkpt>
      <trkpt lat="46.46682" lon="4.83541">
        <ele>319</ele>
        <time>2020-09-22T10:41:12Z</time>
      </trkpt>
      <trkpt lat="46.46703" lon="4.83584">
        <ele>325</ele>
        <time>2020-09-22T10:41:20Z</time>
      </trkpt>
      <trkpt lat="46.46748" lon="4.8364">
        <ele>325</ele>
        <time>2020-09-22T10:41:34Z</time>
      </trkpt>
      <trkpt lat="46.46754" lon="4.83657">
        <ele>327</ele>
        <time>2020-09-22T10:41:37Z</time>
      </trkpt>
      <trkpt lat="46.46753" lon="4.83677">
        <ele>329</ele>
        <time>2020-09-22T10:41:40Z</time>
      </trkpt>
      <trkpt lat="46.46747" lon="4.83694">
        <ele>330</ele>
        <time>2020-09-22T10:41:43Z</time>
      </trkpt>
      <trkpt lat="46.4674" lon="4.83702">
        <ele>331</ele>
        <time>2020-09-22T10:41:45Z</time>
      </trkpt>
      <trkpt lat="46.46739" lon="4.83712">
        <ele>332</ele>
        <time>2020-09-22T10:41:47Z</time>
      </trkpt>
      <trkpt lat="46.46694" lon="4.83662">
        <ele>338</ele>
        <time>2020-09-22T10:42:00Z</time>
      </trkpt>
      <trkpt lat="46.46627" lon="4.83615">
        <ele>341</ele>
        <time>2020-09-22T10:42:18Z</time>
      </trkpt>
      <trkpt lat="46.46599" lon="4.83589">
        <ele>343</ele>
        <time>2020-09-22T10:42:25Z</time>
      </trkpt>
      <trkpt lat="46.46535" lon="4.83559">
        <ele>347</ele>
        <time>2020-09-22T10:42:41Z</time>
      </trkpt>
      <trkpt lat="46.46498" lon="4.83537">
        <ele>349</ele>
        <time>2020-09-22T10:42:50Z</time>
      </trkpt>
      <trkpt lat="46.46488" lon="4.83534">
        <ele>350</ele>
        <time>2020-09-22T10:42:53Z</time>
      </trkpt>
      <trkpt lat="46.46477" lon="4.83534">
        <ele>350</ele>
        <time>2020-09-22T10:42:55Z</time>
      </trkpt>
      <trkpt lat="46.4646" lon="4.83538">
        <ele>352</ele>
        <time>2020-09-22T10:42:59Z</time>
      </trkpt>
      <trkpt lat="46.46452" lon="4.83513">
        <ele>352</ele>
        <time>2020-09-22T10:43:04Z</time>
      </trkpt>
      <trkpt lat="46.46438" lon="4.835">
        <ele>353</ele>
        <time>2020-09-22T10:43:08Z</time>
      </trkpt>
      <trkpt lat="46.46429" lon="4.83495">
        <ele>353</ele>
        <time>2020-09-22T10:43:10Z</time>
      </trkpt>
      <trkpt lat="46.46423" lon="4.83498">
        <ele>354</ele>
        <time>2020-09-22T10:43:11Z</time>
      </trkpt>
      <trkpt lat="46.46405" lon="4.83553">
        <ele>357</ele>
        <time>2020-09-22T10:43:21Z</time>
      </trkpt>
      <trkpt lat="46.46399" lon="4.83556">
        <ele>357</ele>
        <time>2020-09-22T10:43:23Z</time>
      </trkpt>
      <trkpt lat="46.46391" lon="4.83556">
        <ele>357</ele>
        <time>2020-09-22T10:43:25Z</time>
      </trkpt>
      <trkpt lat="46.46377" lon="4.83554">
        <ele>358</ele>
        <time>2020-09-22T10:43:28Z</time>
      </trkpt>
      <trkpt lat="46.46369" lon="4.8355">
        <ele>358</ele>
        <time>2020-09-22T10:43:30Z</time>
      </trkpt>
      <trkpt lat="46.46339" lon="4.83517">
        <ele>361</ele>
        <time>2020-09-22T10:43:39Z</time>
      </trkpt>
      <trkpt lat="46.46333" lon="4.83517">
        <ele>361</ele>
        <time>2020-09-22T10:43:40Z</time>
      </trkpt>
      <trkpt lat="46.4633" lon="4.8352">
        <ele>362</ele>
        <time>2020-09-22T10:43:41Z</time>
      </trkpt>
      <trkpt lat="46.46328" lon="4.83517">
        <ele>362</ele>
        <time>2020-09-22T10:43:42Z</time>
      </trkpt>
      <trkpt lat="46.46298" lon="4.83506">
        <ele>366</ele>
        <time>2020-09-22T10:43:49Z</time>
      </trkpt>
      <trkpt lat="46.46257" lon="4.83496">
        <ele>370</ele>
        <time>2020-09-22T10:43:59Z</time>
      </trkpt>
      <trkpt lat="46.46231" lon="4.83475">
        <ele>371</ele>
        <time>2020-09-22T10:44:05Z</time>
      </trkpt>
      <trkpt lat="46.46208" lon="4.83462">
        <ele>373</ele>
        <time>2020-09-22T10:44:11Z</time>
      </trkpt>
      <trkpt lat="46.46168" lon="4.83449">
        <ele>378</ele>
        <time>2020-09-22T10:44:21Z</time>
      </trkpt>
      <trkpt lat="46.46156" lon="4.83447">
        <ele>379</ele>
        <time>2020-09-22T10:44:24Z</time>
      </trkpt>
      <trkpt lat="46.46012" lon="4.83453">
        <ele>387</ele>
        <time>2020-09-22T10:44:57Z</time>
      </trkpt>
      <trkpt lat="46.45922" lon="4.83466">
        <ele>385</ele>
        <time>2020-09-22T10:45:18Z</time>
      </trkpt>
      <trkpt lat="46.45887" lon="4.83476">
        <ele>382</ele>
        <time>2020-09-22T10:45:27Z</time>
      </trkpt>
      <trkpt lat="46.45873" lon="4.83484">
        <ele>380</ele>
        <time>2020-09-22T10:45:30Z</time>
      </trkpt>
      <trkpt lat="46.45861" lon="4.83495">
        <ele>378</ele>
        <time>2020-09-22T10:45:34Z</time>
      </trkpt>
      <trkpt lat="46.45852" lon="4.83516">
        <ele>375</ele>
        <time>2020-09-22T10:45:38Z</time>
      </trkpt>
      <trkpt lat="46.45762" lon="4.83446">
        <ele>375</ele>
        <time>2020-09-22T10:46:01Z</time>
      </trkpt>
      <trkpt lat="46.45601" lon="4.8374">
        <ele>329</ele>
        <time>2020-09-22T10:47:02Z</time>
      </trkpt>
      <trkpt lat="46.45588" lon="4.8376">
        <ele>326</ele>
        <time>2020-09-22T10:47:06Z</time>
      </trkpt>
      <trkpt lat="46.45577" lon="4.83783">
        <ele>323</ele>
        <time>2020-09-22T10:47:11Z</time>
      </trkpt>
      <trkpt lat="46.45571" lon="4.83803">
        <ele>320</ele>
        <time>2020-09-22T10:47:14Z</time>
      </trkpt>
      <trkpt lat="46.45513" lon="4.83759">
        <ele>318</ele>
        <time>2020-09-22T10:47:30Z</time>
      </trkpt>
      <trkpt lat="46.45444" lon="4.83703">
        <ele>313</ele>
        <time>2020-09-22T10:47:48Z</time>
      </trkpt>
      <trkpt lat="46.45434" lon="4.83692">
        <ele>312</ele>
        <time>2020-09-22T10:47:51Z</time>
      </trkpt>
      <trkpt lat="46.45392" lon="4.83685">
        <ele>307</ele>
        <time>2020-09-22T10:48:01Z</time>
      </trkpt>
      <trkpt lat="46.45343" lon="4.83681">
        <ele>300</ele>
        <time>2020-09-22T10:48:12Z</time>
      </trkpt>
      <trkpt lat="46.45332" lon="4.83678">
        <ele>299</ele>
        <time>2020-09-22T10:48:15Z</time>
      </trkpt>
      <trkpt lat="46.45326" lon="4.83679">
        <ele>298</ele>
        <time>2020-09-22T10:48:16Z</time>
      </trkpt>
      <trkpt lat="46.45307" lon="4.83665">
        <ele>297</ele>
        <time>2020-09-22T10:48:21Z</time>
      </trkpt>
      <trkpt lat="46.45276" lon="4.83655">
        <ele>294</ele>
        <time>2020-09-22T10:48:29Z</time>
      </trkpt>
      <trkpt lat="46.45265" lon="4.83648">
        <ele>294</ele>
        <time>2020-09-22T10:48:31Z</time>
      </trkpt>
      <trkpt lat="46.45221" lon="4.83607">
        <ele>291</ele>
        <time>2020-09-22T10:48:44Z</time>
      </trkpt>
      <trkpt lat="46.452" lon="4.83599">
        <ele>289</ele>
        <time>2020-09-22T10:48:49Z</time>
      </trkpt>
      <trkpt lat="46.45187" lon="4.83597">
        <ele>288</ele>
        <time>2020-09-22T10:48:52Z</time>
      </trkpt>
      <trkpt lat="46.45108" lon="4.83604">
        <ele>281</ele>
        <time>2020-09-22T10:49:10Z</time>
      </trkpt>
      <trkpt lat="46.451" lon="4.83611">
        <ele>280</ele>
        <time>2020-09-22T10:49:12Z</time>
      </trkpt>
      <trkpt lat="46.45097" lon="4.83616">
        <ele>280</ele>
        <time>2020-09-22T10:49:14Z</time>
      </trkpt>
      <trkpt lat="46.45095" lon="4.8363">
        <ele>278</ele>
        <time>2020-09-22T10:49:16Z</time>
      </trkpt>
      <trkpt lat="46.45098" lon="4.83647">
        <ele>278</ele>
        <time>2020-09-22T10:49:19Z</time>
      </trkpt>
      <trkpt lat="46.45114" lon="4.83668">
        <ele>277</ele>
        <time>2020-09-22T10:49:24Z</time>
      </trkpt>
      <trkpt lat="46.45133" lon="4.83685">
        <ele>277</ele>
        <time>2020-09-22T10:49:29Z</time>
      </trkpt>
      <trkpt lat="46.45134" lon="4.83695">
        <ele>276</ele>
        <time>2020-09-22T10:49:31Z</time>
      </trkpt>
      <trkpt lat="46.45128" lon="4.83701">
        <ele>275</ele>
        <time>2020-09-22T10:49:32Z</time>
      </trkpt>
      <trkpt lat="46.45077" lon="4.83697">
        <ele>270</ele>
        <time>2020-09-22T10:49:44Z</time>
      </trkpt>
      <trkpt lat="46.45057" lon="4.83689">
        <ele>269</ele>
        <time>2020-09-22T10:49:49Z</time>
      </trkpt>
      <trkpt lat="46.4504" lon="4.83674">
        <ele>269</ele>
        <time>2020-09-22T10:49:54Z</time>
      </trkpt>
      <trkpt lat="46.45044" lon="4.83663">
        <ele>271</ele>
        <time>2020-09-22T10:49:56Z</time>
      </trkpt>
      <trkpt lat="46.45044" lon="4.83656">
        <ele>271</ele>
        <time>2020-09-22T10:49:57Z</time>
      </trkpt>
      <trkpt lat="46.45038" lon="4.83604">
        <ele>275</ele>
        <time>2020-09-22T10:50:05Z</time>
      </trkpt>
      <trkpt lat="46.45062" lon="4.83471">
        <ele>288</ele>
        <time>2020-09-22T10:50:27Z</time>
      </trkpt>
      <trkpt lat="46.45061" lon="4.83461">
        <ele>289</ele>
        <time>2020-09-22T10:50:29Z</time>
      </trkpt>
      <trkpt lat="46.44967" lon="4.83425">
        <ele>289</ele>
        <time>2020-09-22T10:50:52Z</time>
      </trkpt>
      <trkpt lat="46.44906" lon="4.83378">
        <ele>297</ele>
        <time>2020-09-22T10:51:08Z</time>
      </trkpt>
      <trkpt lat="46.44836" lon="4.83318">
        <ele>309</ele>
        <time>2020-09-22T10:51:27Z</time>
      </trkpt>
      <trkpt lat="46.44829" lon="4.83308">
        <ele>311</ele>
        <time>2020-09-22T10:51:29Z</time>
      </trkpt>
      <trkpt lat="46.44803" lon="4.83353">
        <ele>298</ele>
        <time>2020-09-22T10:51:39Z</time>
      </trkpt>
      <trkpt lat="46.448" lon="4.83368">
        <ele>295</ele>
        <time>2020-09-22T10:51:41Z</time>
      </trkpt>
      <trkpt lat="46.44783" lon="4.83413">
        <ele>284</ele>
        <time>2020-09-22T10:51:49Z</time>
      </trkpt>
      <trkpt lat="46.44782" lon="4.83418">
        <ele>283</ele>
        <time>2020-09-22T10:51:50Z</time>
      </trkpt>
      <trkpt lat="46.44788" lon="4.8345">
        <ele>279</ele>
        <time>2020-09-22T10:51:56Z</time>
      </trkpt>
      <trkpt lat="46.44785" lon="4.83462">
        <ele>276</ele>
        <time>2020-09-22T10:51:58Z</time>
      </trkpt>
      <trkpt lat="46.44779" lon="4.83471">
        <ele>274</ele>
        <time>2020-09-22T10:52:00Z</time>
      </trkpt>
      <trkpt lat="46.4476" lon="4.83479">
        <ele>271</ele>
        <time>2020-09-22T10:52:04Z</time>
      </trkpt>
      <trkpt lat="46.44754" lon="4.83491">
        <ele>268</ele>
        <time>2020-09-22T10:52:07Z</time>
      </trkpt>
      <trkpt lat="46.44745" lon="4.83526">
        <ele>262</ele>
        <time>2020-09-22T10:52:13Z</time>
      </trkpt>
      <trkpt lat="46.44743" lon="4.83543">
        <ele>260</ele>
        <time>2020-09-22T10:52:15Z</time>
      </trkpt>
      <trkpt lat="46.44744" lon="4.83565">
        <ele>258</ele>
        <time>2020-09-22T10:52:19Z</time>
      </trkpt>
      <trkpt lat="46.44685" lon="4.83516">
        <ele>259</ele>
        <time>2020-09-22T10:52:35Z</time>
      </trkpt>
      <trkpt lat="46.44559" lon="4.83435">
        <ele>260</ele>
        <time>2020-09-22T10:53:07Z</time>
      </trkpt>
      <trkpt lat="46.44533" lon="4.83424">
        <ele>260</ele>
        <time>2020-09-22T10:53:13Z</time>
      </trkpt>
      <trkpt lat="46.44464" lon="4.83388">
        <ele>263</ele>
        <time>2020-09-22T10:53:30Z</time>
      </trkpt>
      <trkpt lat="46.44412" lon="4.83365">
        <ele>265</ele>
        <time>2020-09-22T10:53:43Z</time>
      </trkpt>
      <trkpt lat="46.44399" lon="4.83349">
        <ele>266</ele>
        <time>2020-09-22T10:53:47Z</time>
      </trkpt>
      <trkpt lat="46.44387" lon="4.83322">
        <ele>269</ele>
        <time>2020-09-22T10:53:52Z</time>
      </trkpt>
      <trkpt lat="46.44332" lon="4.83301">
        <ele>267</ele>
        <time>2020-09-22T10:54:06Z</time>
      </trkpt>
      <trkpt lat="46.44329" lon="4.83304">
        <ele>266</ele>
        <time>2020-09-22T10:54:06Z</time>
      </trkpt>
      <trkpt lat="46.44327" lon="4.83316">
        <ele>265</ele>
        <time>2020-09-22T10:54:08Z</time>
      </trkpt>
      <trkpt lat="46.4432" lon="4.83314">
        <ele>264</ele>
        <time>2020-09-22T10:54:10Z</time>
      </trkpt>
      <trkpt lat="46.44271" lon="4.83282">
        <ele>262</ele>
        <time>2020-09-22T10:54:23Z</time>
      </trkpt>
      <trkpt lat="46.44256" lon="4.83275">
        <ele>261</ele>
        <time>2020-09-22T10:54:26Z</time>
      </trkpt>
      <trkpt lat="46.44229" lon="4.83273">
        <ele>259</ele>
        <time>2020-09-22T10:54:33Z</time>
      </trkpt>
      <trkpt lat="46.44218" lon="4.83267">
        <ele>258</ele>
        <time>2020-09-22T10:54:35Z</time>
      </trkpt>
      <trkpt lat="46.44159" lon="4.83218">
        <ele>259</ele>
        <time>2020-09-22T10:54:51Z</time>
      </trkpt>
      <trkpt lat="46.44218" lon="4.83267">
        <ele>258</ele>
        <time>2020-09-22T10:55:07Z</time>
      </trkpt>
      <trkpt lat="46.44159" lon="4.83218">
        <ele>259</ele>
        <time>2020-09-22T10:55:23Z</time>
      </trkpt>
      <trkpt lat="46.4415" lon="4.83226">
        <ele>258</ele>
        <time>2020-09-22T10:55:25Z</time>
      </trkpt>
      <trkpt lat="46.44131" lon="4.83226">
        <ele>258</ele>
        <time>2020-09-22T10:55:30Z</time>
      </trkpt>
      <trkpt lat="46.44127" lon="4.83251">
        <ele>255</ele>
        <time>2020-09-22T10:55:34Z</time>
      </trkpt>
      <trkpt lat="46.44109" lon="4.8325">
        <ele>255</ele>
        <time>2020-09-22T10:55:38Z</time>
      </trkpt>
      <trkpt lat="46.441" lon="4.83275">
        <ele>254</ele>
        <time>2020-09-22T10:55:43Z</time>
      </trkpt>
      <trkpt lat="46.44091" lon="4.83311">
        <ele>253</ele>
        <time>2020-09-22T10:55:49Z</time>
      </trkpt>
      <trkpt lat="46.44093" lon="4.83318">
        <ele>253</ele>
        <time>2020-09-22T10:55:50Z</time>
      </trkpt>
      <trkpt lat="46.44091" lon="4.83388">
        <ele>250</ele>
        <time>2020-09-22T10:56:01Z</time>
      </trkpt>
      <trkpt lat="46.44099" lon="4.83389">
        <ele>250</ele>
        <time>2020-09-22T10:56:03Z</time>
      </trkpt>
      <trkpt lat="46.4413" lon="4.83406">
        <ele>250</ele>
        <time>2020-09-22T10:56:11Z</time>
      </trkpt>
      <trkpt lat="46.44184" lon="4.83506">
        <ele>248</ele>
        <time>2020-09-22T10:56:31Z</time>
      </trkpt>
      <trkpt lat="46.44212" lon="4.83608">
        <ele>244</ele>
        <time>2020-09-22T10:56:49Z</time>
      </trkpt>
      <trkpt lat="46.44213" lon="4.83641">
        <ele>243</ele>
        <time>2020-09-22T10:56:54Z</time>
      </trkpt>
      <trkpt lat="46.44199" lon="4.83779">
        <ele>240</ele>
        <time>2020-09-22T10:57:17Z</time>
      </trkpt>
      <trkpt lat="46.44196" lon="4.8387">
        <ele>238</ele>
        <time>2020-09-22T10:57:32Z</time>
      </trkpt>
      <trkpt lat="46.44188" lon="4.83916">
        <ele>237</ele>
        <time>2020-09-22T10:57:39Z</time>
      </trkpt>
      <trkpt lat="46.44191" lon="4.83902">
        <ele>237</ele>
        <time>2020-09-22T10:57:42Z</time>
      </trkpt>
      <trkpt lat="46.44141" lon="4.83889">
        <ele>237</ele>
        <time>2020-09-22T10:57:53Z</time>
      </trkpt>
      <trkpt lat="46.44092" lon="4.83869">
        <ele>236</ele>
        <time>2020-09-22T10:58:05Z</time>
      </trkpt>
      <trkpt lat="46.44044" lon="4.83854">
        <ele>235</ele>
        <time>2020-09-22T10:58:17Z</time>
      </trkpt>
      <trkpt lat="46.44032" lon="4.83853">
        <ele>235</ele>
        <time>2020-09-22T10:58:20Z</time>
      </trkpt>
      <trkpt lat="46.4403" lon="4.83835">
        <ele>235</ele>
        <time>2020-09-22T10:58:23Z</time>
      </trkpt>
      <trkpt lat="46.44014" lon="4.8383">
        <ele>235</ele>
        <time>2020-09-22T10:58:26Z</time>
      </trkpt>
      <trkpt lat="46.43983" lon="4.83814">
        <ele>236</ele>
        <time>2020-09-22T10:58:34Z</time>
      </trkpt>
      <trkpt lat="46.43945" lon="4.83802">
        <ele>236</ele>
        <time>2020-09-22T10:58:43Z</time>
      </trkpt>
      <trkpt lat="46.43872" lon="4.83773">
        <ele>236</ele>
        <time>2020-09-22T10:59:01Z</time>
      </trkpt>
      <trkpt lat="46.43821" lon="4.83751">
        <ele>237</ele>
        <time>2020-09-22T10:59:13Z</time>
      </trkpt>
      <trkpt lat="46.43789" lon="4.83734">
        <ele>238</ele>
        <time>2020-09-22T10:59:21Z</time>
      </trkpt>
      <trkpt lat="46.43765" lon="4.83726">
        <ele>238</ele>
        <time>2020-09-22T10:59:27Z</time>
      </trkpt>
      <trkpt lat="46.43753" lon="4.83724">
        <ele>238</ele>
        <time>2020-09-22T10:59:30Z</time>
      </trkpt>
      <trkpt lat="46.43712" lon="4.83728">
        <ele>238</ele>
        <time>2020-09-22T10:59:39Z</time>
      </trkpt>
      <trkpt lat="46.43689" lon="4.83714">
        <ele>239</ele>
        <time>2020-09-22T10:59:45Z</time>
      </trkpt>
      <trkpt lat="46.43664" lon="4.83709">
        <ele>240</ele>
        <time>2020-09-22T10:59:51Z</time>
      </trkpt>
      <trkpt lat="46.43651" lon="4.83717">
        <ele>240</ele>
        <time>2020-09-22T10:59:54Z</time>
      </trkpt>
      <trkpt lat="46.43627" lon="4.83757">
        <ele>241</ele>
        <time>2020-09-22T11:00:03Z</time>
      </trkpt>
      <trkpt lat="46.43545" lon="4.83697">
        <ele>245</ele>
        <time>2020-09-22T11:00:24Z</time>
      </trkpt>
      <trkpt lat="46.43525" lon="4.8368">
        <ele>247</ele>
        <time>2020-09-22T11:00:30Z</time>
      </trkpt>
      <trkpt lat="46.4346" lon="4.83591">
        <ele>253</ele>
        <time>2020-09-22T11:00:51Z</time>
      </trkpt>
      <trkpt lat="46.43424" lon="4.83547">
        <ele>257</ele>
        <time>2020-09-22T11:01:02Z</time>
      </trkpt>
      <trkpt lat="46.43385" lon="4.83483">
        <ele>260</ele>
        <time>2020-09-22T11:01:15Z</time>
      </trkpt>
      <trkpt lat="46.43371" lon="4.83465">
        <ele>261</ele>
        <time>2020-09-22T11:01:20Z</time>
      </trkpt>
      <trkpt lat="46.4327" lon="4.83388">
        <ele>263</ele>
        <time>2020-09-22T11:01:46Z</time>
      </trkpt>
      <trkpt lat="46.43242" lon="4.83391">
        <ele>263</ele>
        <time>2020-09-22T11:01:53Z</time>
      </trkpt>
      <trkpt lat="46.4323" lon="4.83389">
        <ele>262</ele>
        <time>2020-09-22T11:01:56Z</time>
      </trkpt>
      <trkpt lat="46.43206" lon="4.83379">
        <ele>261</ele>
        <time>2020-09-22T11:02:02Z</time>
      </trkpt>
      <trkpt lat="46.43181" lon="4.83366">
        <ele>260</ele>
        <time>2020-09-22T11:02:08Z</time>
      </trkpt>
      <trkpt lat="46.43153" lon="4.83347">
        <ele>259</ele>
        <time>2020-09-22T11:02:15Z</time>
      </trkpt>
      <trkpt lat="46.43115" lon="4.83317">
        <ele>258</ele>
        <time>2020-09-22T11:02:25Z</time>
      </trkpt>
      <trkpt lat="46.43108" lon="4.83309">
        <ele>257</ele>
        <time>2020-09-22T11:02:27Z</time>
      </trkpt>
      <trkpt lat="46.43104" lon="4.83298">
        <ele>257</ele>
        <time>2020-09-22T11:02:29Z</time>
      </trkpt>
      <trkpt lat="46.43082" lon="4.83213">
        <ele>255</ele>
        <time>2020-09-22T11:02:44Z</time>
      </trkpt>
      <trkpt lat="46.43068" lon="4.83191">
        <ele>255</ele>
        <time>2020-09-22T11:02:49Z</time>
      </trkpt>
      <trkpt lat="46.42962" lon="4.83047">
        <ele>258</ele>
        <time>2020-09-22T11:03:23Z</time>
      </trkpt>
      <trkpt lat="46.42958" lon="4.83032">
        <ele>259</ele>
        <time>2020-09-22T11:03:25Z</time>
      </trkpt>
      <trkpt lat="46.42901" lon="4.82932">
        <ele>263</ele>
        <time>2020-09-22T11:03:46Z</time>
      </trkpt>
      <trkpt lat="46.42879" lon="4.82916">
        <ele>264</ele>
        <time>2020-09-22T11:03:52Z</time>
      </trkpt>
      <trkpt lat="46.4282" lon="4.82888">
        <ele>267</ele>
        <time>2020-09-22T11:04:06Z</time>
      </trkpt>
      <trkpt lat="46.42675" lon="4.82778">
        <ele>269</ele>
        <time>2020-09-22T11:04:44Z</time>
      </trkpt>
      <trkpt lat="46.42653" lon="4.82768">
        <ele>269</ele>
        <time>2020-09-22T11:04:50Z</time>
      </trkpt>
      <trkpt lat="46.42627" lon="4.82761">
        <ele>269</ele>
        <time>2020-09-22T11:04:56Z</time>
      </trkpt>
      <trkpt lat="46.42595" lon="4.82755">
        <ele>268</ele>
        <time>2020-09-22T11:05:04Z</time>
      </trkpt>
      <trkpt lat="46.42547" lon="4.82754">
        <ele>268</ele>
        <time>2020-09-22T11:05:15Z</time>
      </trkpt>
      <trkpt lat="46.42524" lon="4.82749">
        <ele>268</ele>
        <time>2020-09-22T11:05:20Z</time>
      </trkpt>
      <trkpt lat="46.42481" lon="4.82731">
        <ele>268</ele>
        <time>2020-09-22T11:05:31Z</time>
      </trkpt>
      <trkpt lat="46.42458" lon="4.82718">
        <ele>267</ele>
        <time>2020-09-22T11:05:36Z</time>
      </trkpt>
      <trkpt lat="46.42448" lon="4.82709">
        <ele>267</ele>
        <time>2020-09-22T11:05:39Z</time>
      </trkpt>
      <trkpt lat="46.42442" lon="4.82699">
        <ele>267</ele>
        <time>2020-09-22T11:05:41Z</time>
      </trkpt>
      <trkpt lat="46.42411" lon="4.82828">
        <ele>263</ele>
        <time>2020-09-22T11:06:03Z</time>
      </trkpt>
      <trkpt lat="46.42381" lon="4.8298">
        <ele>253</ele>
        <time>2020-09-22T11:06:29Z</time>
      </trkpt>
      <trkpt lat="46.42363" lon="4.83042">
        <ele>249</ele>
        <time>2020-09-22T11:06:40Z</time>
      </trkpt>
      <trkpt lat="46.42351" lon="4.8306">
        <ele>248</ele>
        <time>2020-09-22T11:06:44Z</time>
      </trkpt>
      <trkpt lat="46.4231" lon="4.83091">
        <ele>245</ele>
        <time>2020-09-22T11:06:54Z</time>
      </trkpt>
      <trkpt lat="46.42295" lon="4.83109">
        <ele>244</ele>
        <time>2020-09-22T11:06:59Z</time>
      </trkpt>
      <trkpt lat="46.42286" lon="4.83124">
        <ele>244</ele>
        <time>2020-09-22T11:07:02Z</time>
      </trkpt>
      <trkpt lat="46.42265" lon="4.83182">
        <ele>241</ele>
        <time>2020-09-22T11:07:13Z</time>
      </trkpt>
      <trkpt lat="46.42222" lon="4.83264">
        <ele>239</ele>
        <time>2020-09-22T11:07:29Z</time>
      </trkpt>
      <trkpt lat="46.42164" lon="4.83407">
        <ele>235</ele>
        <time>2020-09-22T11:07:56Z</time>
      </trkpt>
      <trkpt lat="46.42144" lon="4.83451">
        <ele>234</ele>
        <time>2020-09-22T11:08:04Z</time>
      </trkpt>
      <trkpt lat="46.42102" lon="4.83529">
        <ele>234</ele>
        <time>2020-09-22T11:08:20Z</time>
      </trkpt>
      <trkpt lat="46.42057" lon="4.83605">
        <ele>236</ele>
        <time>2020-09-22T11:08:37Z</time>
      </trkpt>
      <trkpt lat="46.42045" lon="4.83608">
        <ele>236</ele>
        <time>2020-09-22T11:08:39Z</time>
      </trkpt>
      <trkpt lat="46.42014" lon="4.83579">
        <ele>236</ele>
        <time>2020-09-22T11:08:48Z</time>
      </trkpt>
      <trkpt lat="46.42003" lon="4.83573">
        <ele>236</ele>
        <time>2020-09-22T11:08:51Z</time>
      </trkpt>
      <trkpt lat="46.41966" lon="4.8356">
        <ele>235</ele>
        <time>2020-09-22T11:09:00Z</time>
      </trkpt>
      <trkpt lat="46.41947" lon="4.83636">
        <ele>238</ele>
        <time>2020-09-22T11:09:13Z</time>
      </trkpt>
      <trkpt lat="46.41876" lon="4.8389">
        <ele>234</ele>
        <time>2020-09-22T11:09:57Z</time>
      </trkpt>
      <trkpt lat="46.4186" lon="4.84087">
        <ele>228</ele>
        <time>2020-09-22T11:10:29Z</time>
      </trkpt>
      <trkpt lat="46.41865" lon="4.84099">
        <ele>228</ele>
        <time>2020-09-22T11:10:31Z</time>
      </trkpt>
      <trkpt lat="46.41871" lon="4.84106">
        <ele>228</ele>
        <time>2020-09-22T11:10:33Z</time>
      </trkpt>
      <trkpt lat="46.4195" lon="4.84145">
        <ele>232</ele>
        <time>2020-09-22T11:10:52Z</time>
      </trkpt>
      <trkpt lat="46.41956" lon="4.84151">
        <ele>232</ele>
        <time>2020-09-22T11:10:54Z</time>
      </trkpt>
      <trkpt lat="46.41959" lon="4.84166">
        <ele>232</ele>
        <time>2020-09-22T11:10:56Z</time>
      </trkpt>
      <trkpt lat="46.41935" lon="4.84554">
        <ele>224</ele>
        <time>2020-09-22T11:11:59Z</time>
      </trkpt>
      <trkpt lat="46.41935" lon="4.84576">
        <ele>224</ele>
        <time>2020-09-22T11:12:03Z</time>
      </trkpt>
      <trkpt lat="46.41938" lon="4.84591">
        <ele>224</ele>
        <time>2020-09-22T11:12:05Z</time>
      </trkpt>
      <trkpt lat="46.42106" lon="4.84919">
        <ele>217</ele>
        <time>2020-09-22T11:13:11Z</time>
      </trkpt>
      <trkpt lat="46.42152" lon="4.85085">
        <ele>212</ele>
        <time>2020-09-22T11:13:40Z</time>
      </trkpt>
      <trkpt lat="46.42158" lon="4.85122">
        <ele>211</ele>
        <time>2020-09-22T11:13:46Z</time>
      </trkpt>
      <trkpt lat="46.42158" lon="4.8513">
        <ele>211</ele>
        <time>2020-09-22T11:13:47Z</time>
      </trkpt>
      <trkpt lat="46.42128" lon="4.85196">
        <ele>214</ele>
        <time>2020-09-22T11:14:00Z</time>
      </trkpt>
      <trkpt lat="46.42121" lon="4.85217">
        <ele>214</ele>
        <time>2020-09-22T11:14:04Z</time>
      </trkpt>
      <trkpt lat="46.42119" lon="4.85233">
        <ele>215</ele>
        <time>2020-09-22T11:14:06Z</time>
      </trkpt>
      <trkpt lat="46.4212" lon="4.85251">
        <ele>215</ele>
        <time>2020-09-22T11:14:09Z</time>
      </trkpt>
      <trkpt lat="46.42131" lon="4.85295">
        <ele>213</ele>
        <time>2020-09-22T11:14:17Z</time>
      </trkpt>
      <trkpt lat="46.42137" lon="4.85337">
        <ele>211</ele>
        <time>2020-09-22T11:14:24Z</time>
      </trkpt>
      <trkpt lat="46.42125" lon="4.85428">
        <ele>211</ele>
        <time>2020-09-22T11:14:39Z</time>
      </trkpt>
      <trkpt lat="46.42122" lon="4.85503">
        <ele>211</ele>
        <time>2020-09-22T11:14:51Z</time>
      </trkpt>
      <trkpt lat="46.42118" lon="4.85525">
        <ele>211</ele>
        <time>2020-09-22T11:14:54Z</time>
      </trkpt>
      <trkpt lat="46.42092" lon="4.85619">
        <ele>211</ele>
        <time>2020-09-22T11:15:11Z</time>
      </trkpt>
      <trkpt lat="46.42036" lon="4.85783">
        <ele>216</ele>
        <time>2020-09-22T11:15:40Z</time>
      </trkpt>
      <trkpt lat="46.42031" lon="4.85807">
        <ele>216</ele>
        <time>2020-09-22T11:15:44Z</time>
      </trkpt>
      <trkpt lat="46.42024" lon="4.85824">
        <ele>217</ele>
        <time>2020-09-22T11:15:47Z</time>
      </trkpt>
      <trkpt lat="46.42014" lon="4.85875">
        <ele>218</ele>
        <time>2020-09-22T11:15:56Z</time>
      </trkpt>
      <trkpt lat="46.42007" lon="4.85866">
        <ele>218</ele>
        <time>2020-09-22T11:15:58Z</time>
      </trkpt>
      <trkpt lat="46.42002" lon="4.85854">
        <ele>219</ele>
        <time>2020-09-22T11:16:00Z</time>
      </trkpt>
      <trkpt lat="46.42003" lon="4.85814">
        <ele>219</ele>
        <time>2020-09-22T11:16:07Z</time>
      </trkpt>
      <trkpt lat="46.41998" lon="4.85795">
        <ele>219</ele>
        <time>2020-09-22T11:16:10Z</time>
      </trkpt>
      <trkpt lat="46.41991" lon="4.8578">
        <ele>220</ele>
        <time>2020-09-22T11:16:13Z</time>
      </trkpt>
      <trkpt lat="46.41976" lon="4.85766">
        <ele>222</ele>
        <time>2020-09-22T11:16:17Z</time>
      </trkpt>
      <trkpt lat="46.41951" lon="4.85748">
        <ele>224</ele>
        <time>2020-09-22T11:16:24Z</time>
      </trkpt>
      <trkpt lat="46.41902" lon="4.85726">
        <ele>227</ele>
        <time>2020-09-22T11:16:36Z</time>
      </trkpt>
      <trkpt lat="46.4186" lon="4.85704">
        <ele>229</ele>
        <time>2020-09-22T11:16:46Z</time>
      </trkpt>
      <trkpt lat="46.41815" lon="4.85685">
        <ele>231</ele>
        <time>2020-09-22T11:16:57Z</time>
      </trkpt>
      <trkpt lat="46.41724" lon="4.8567">
        <ele>235</ele>
        <time>2020-09-22T11:17:18Z</time>
      </trkpt>
      <trkpt lat="46.41685" lon="4.85666">
        <ele>237</ele>
        <time>2020-09-22T11:17:28Z</time>
      </trkpt>
      <trkpt lat="46.4166" lon="4.85667">
        <ele>238</ele>
        <time>2020-09-22T11:17:33Z</time>
      </trkpt>
      <trkpt lat="46.41635" lon="4.85662">
        <ele>238</ele>
        <time>2020-09-22T11:17:39Z</time>
      </trkpt>
      <trkpt lat="46.41607" lon="4.85661">
        <ele>239</ele>
        <time>2020-09-22T11:17:46Z</time>
      </trkpt>
      <trkpt lat="46.41592" lon="4.85658">
        <ele>238</ele>
        <time>2020-09-22T11:17:49Z</time>
      </trkpt>
      <trkpt lat="46.41577" lon="4.85649">
        <ele>237</ele>
        <time>2020-09-22T11:17:53Z</time>
      </trkpt>
      <trkpt lat="46.41546" lon="4.85609">
        <ele>231</ele>
        <time>2020-09-22T11:18:03Z</time>
      </trkpt>
      <trkpt lat="46.41509" lon="4.85611">
        <ele>232</ele>
        <time>2020-09-22T11:18:11Z</time>
      </trkpt>
      <trkpt lat="46.41498" lon="4.85607">
        <ele>232</ele>
        <time>2020-09-22T11:18:14Z</time>
      </trkpt>
      <trkpt lat="46.41447" lon="4.85577">
        <ele>231</ele>
        <time>2020-09-22T11:18:27Z</time>
      </trkpt>
      <trkpt lat="46.41409" lon="4.85549">
        <ele>230</ele>
        <time>2020-09-22T11:18:37Z</time>
      </trkpt>
      <trkpt lat="46.41386" lon="4.85539">
        <ele>230</ele>
        <time>2020-09-22T11:18:43Z</time>
      </trkpt>
      <trkpt lat="46.4137" lon="4.85537">
        <ele>230</ele>
        <time>2020-09-22T11:18:46Z</time>
      </trkpt>
      <trkpt lat="46.41314" lon="4.85482">
        <ele>232</ele>
        <time>2020-09-22T11:19:02Z</time>
      </trkpt>
      <trkpt lat="46.4128" lon="4.85455">
        <ele>233</ele>
        <time>2020-09-22T11:19:11Z</time>
      </trkpt>
      <trkpt lat="46.41236" lon="4.85431">
        <ele>236</ele>
        <time>2020-09-22T11:19:22Z</time>
      </trkpt>
      <trkpt lat="46.41218" lon="4.85428">
        <ele>236</ele>
        <time>2020-09-22T11:19:26Z</time>
      </trkpt>
      <trkpt lat="46.41199" lon="4.85428">
        <ele>237</ele>
        <time>2020-09-22T11:19:31Z</time>
      </trkpt>
      <trkpt lat="46.41178" lon="4.85432">
        <ele>239</ele>
        <time>2020-09-22T11:19:36Z</time>
      </trkpt>
      <trkpt lat="46.41166" lon="4.85438">
        <ele>240</ele>
        <time>2020-09-22T11:19:39Z</time>
      </trkpt>
      <trkpt lat="46.41151" lon="4.85453">
        <ele>240</ele>
        <time>2020-09-22T11:19:43Z</time>
      </trkpt>
      <trkpt lat="46.41162" lon="4.85491">
        <ele>241</ele>
        <time>2020-09-22T11:19:50Z</time>
      </trkpt>
      <trkpt lat="46.41164" lon="4.85547">
        <ele>242</ele>
        <time>2020-09-22T11:19:59Z</time>
      </trkpt>
      <trkpt lat="46.41161" lon="4.85583">
        <ele>243</ele>
        <time>2020-09-22T11:20:04Z</time>
      </trkpt>
      <trkpt lat="46.41163" lon="4.85597">
        <ele>243</ele>
        <time>2020-09-22T11:20:07Z</time>
      </trkpt>
      <trkpt lat="46.4117" lon="4.85612">
        <ele>243</ele>
        <time>2020-09-22T11:20:10Z</time>
      </trkpt>
      <trkpt lat="46.41177" lon="4.85621">
        <ele>243</ele>
        <time>2020-09-22T11:20:12Z</time>
      </trkpt>
      <trkpt lat="46.41196" lon="4.85631">
        <ele>242</ele>
        <time>2020-09-22T11:20:17Z</time>
      </trkpt>
      <trkpt lat="46.41221" lon="4.85635">
        <ele>242</ele>
        <time>2020-09-22T11:20:22Z</time>
      </trkpt>
      <trkpt lat="46.41255" lon="4.85645">
        <ele>241</ele>
        <time>2020-09-22T11:20:31Z</time>
      </trkpt>
      <trkpt lat="46.41279" lon="4.85657">
        <ele>242</ele>
        <time>2020-09-22T11:20:36Z</time>
      </trkpt>
      <trkpt lat="46.41291" lon="4.85671">
        <ele>243</ele>
        <time>2020-09-22T11:20:40Z</time>
      </trkpt>
      <trkpt lat="46.41301" lon="4.85694">
        <ele>244</ele>
        <time>2020-09-22T11:20:44Z</time>
      </trkpt>
      <trkpt lat="46.41292" lon="4.85705">
        <ele>244</ele>
        <time>2020-09-22T11:20:47Z</time>
      </trkpt>
      <trkpt lat="46.4128" lon="4.85732">
        <ele>245</ele>
        <time>2020-09-22T11:20:52Z</time>
      </trkpt>
      <trkpt lat="46.41255" lon="4.85805">
        <ele>240</ele>
        <time>2020-09-22T11:21:05Z</time>
      </trkpt>
      <trkpt lat="46.41233" lon="4.85893">
        <ele>231</ele>
        <time>2020-09-22T11:21:21Z</time>
      </trkpt>
      <trkpt lat="46.41227" lon="4.85899">
        <ele>230</ele>
        <time>2020-09-22T11:21:22Z</time>
      </trkpt>
      <trkpt lat="46.41214" lon="4.859">
        <ele>229</ele>
        <time>2020-09-22T11:21:25Z</time>
      </trkpt>
      <trkpt lat="46.41205" lon="4.85898">
        <ele>228</ele>
        <time>2020-09-22T11:21:27Z</time>
      </trkpt>
      <trkpt lat="46.41186" lon="4.85887">
        <ele>228</ele>
        <time>2020-09-22T11:21:32Z</time>
      </trkpt>
      <trkpt lat="46.41031" lon="4.85779">
        <ele>225</ele>
        <time>2020-09-22T11:22:12Z</time>
      </trkpt>
      <trkpt lat="46.40992" lon="4.85761">
        <ele>223</ele>
        <time>2020-09-22T11:22:22Z</time>
      </trkpt>
      <trkpt lat="46.40958" lon="4.85753">
        <ele>220</ele>
        <time>2020-09-22T11:22:30Z</time>
      </trkpt>
      <trkpt lat="46.40907" lon="4.85747">
        <ele>215</ele>
        <time>2020-09-22T11:22:42Z</time>
      </trkpt>
      <trkpt lat="46.40878" lon="4.8574">
        <ele>211</ele>
        <time>2020-09-22T11:22:49Z</time>
      </trkpt>
      <trkpt lat="46.40839" lon="4.85727">
        <ele>205</ele>
        <time>2020-09-22T11:22:58Z</time>
      </trkpt>
      <trkpt lat="46.40803" lon="4.8571">
        <ele>201</ele>
        <time>2020-09-22T11:23:07Z</time>
      </trkpt>
      <trkpt lat="46.40792" lon="4.85703">
        <ele>200</ele>
        <time>2020-09-22T11:23:10Z</time>
      </trkpt>
      <trkpt lat="46.40706" lon="4.85625">
        <ele>189</ele>
        <time>2020-09-22T11:23:33Z</time>
      </trkpt>
      <trkpt lat="46.40663" lon="4.85594">
        <ele>180</ele>
        <time>2020-09-22T11:23:45Z</time>
      </trkpt>
      <trkpt lat="46.40649" lon="4.85589">
        <ele>181</ele>
        <time>2020-09-22T11:23:48Z</time>
      </trkpt>
      <trkpt lat="46.40644" lon="4.85728">
        <ele>181</ele>
        <time>2020-09-22T11:24:10Z</time>
      </trkpt>
      <trkpt lat="46.40649" lon="4.85789">
        <ele>180</ele>
        <time>2020-09-22T11:24:20Z</time>
      </trkpt>
      <trkpt lat="46.40657" lon="4.85829">
        <ele>178</ele>
        <time>2020-09-22T11:24:27Z</time>
      </trkpt>
      <trkpt lat="46.40675" lon="4.85892">
        <ele>179</ele>
        <time>2020-09-22T11:24:38Z</time>
      </trkpt>
      <trkpt lat="46.40705" lon="4.85965">
        <ele>180</ele>
        <time>2020-09-22T11:24:52Z</time>
      </trkpt>
      <trkpt lat="46.40719" lon="4.86027">
        <ele>180</ele>
        <time>2020-09-22T11:25:02Z</time>
      </trkpt>
      <trkpt lat="46.40733" lon="4.86248">
        <ele>179</ele>
        <time>2020-09-22T11:25:38Z</time>
      </trkpt>
      <trkpt lat="46.40733" lon="4.86307">
        <ele>179</ele>
        <time>2020-09-22T11:25:47Z</time>
      </trkpt>
      <trkpt lat="46.40726" lon="4.86389">
        <ele>180</ele>
        <time>2020-09-22T11:26:01Z</time>
      </trkpt>
      <trkpt lat="46.40727" lon="4.865">
        <ele>181</ele>
        <time>2020-09-22T11:26:19Z</time>
      </trkpt>
      <trkpt lat="46.4072" lon="4.86532">
        <ele>180</ele>
        <time>2020-09-22T11:26:24Z</time>
      </trkpt>
      <trkpt lat="46.407" lon="4.86568">
        <ele>179</ele>
        <time>2020-09-22T11:26:31Z</time>
      </trkpt>
      <trkpt lat="46.40664" lon="4.8666">
        <ele>179</ele>
        <time>2020-09-22T11:26:49Z</time>
      </trkpt>
      <trkpt lat="46.40583" lon="4.86901">
        <ele>178</ele>
        <time>2020-09-22T11:27:32Z</time>
      </trkpt>
      <trkpt lat="46.4057" lon="4.8692">
        <ele>178</ele>
        <time>2020-09-22T11:27:36Z</time>
      </trkpt>
      <trkpt lat="46.40575" lon="4.86913">
        <ele>178</ele>
        <time>2020-09-22T11:27:38Z</time>
      </trkpt>
      <trkpt lat="46.40581" lon="4.8692">
        <ele>179</ele>
        <time>2020-09-22T11:27:39Z</time>
      </trkpt>
      <trkpt lat="46.40599" lon="4.86931">
        <ele>181</ele>
        <time>2020-09-22T11:27:44Z</time>
      </trkpt>
      <trkpt lat="46.40635" lon="4.86946">
        <ele>184</ele>
        <time>2020-09-22T11:27:53Z</time>
      </trkpt>
      <trkpt lat="46.40723" lon="4.86978">
        <ele>190</ele>
        <time>2020-09-22T11:28:14Z</time>
      </trkpt>
      <trkpt lat="46.40785" lon="4.86996">
        <ele>192</ele>
        <time>2020-09-22T11:28:29Z</time>
      </trkpt>
      <trkpt lat="46.408" lon="4.87005">
        <ele>192</ele>
        <time>2020-09-22T11:28:32Z</time>
      </trkpt>
      <trkpt lat="46.40842" lon="4.87023">
        <ele>192</ele>
        <time>2020-09-22T11:28:43Z</time>
      </trkpt>
      <trkpt lat="46.40846" lon="4.87065">
        <ele>191</ele>
        <time>2020-09-22T11:28:50Z</time>
      </trkpt>
      <trkpt lat="46.40843" lon="4.87112">
        <ele>189</ele>
        <time>2020-09-22T11:28:57Z</time>
      </trkpt>
      <trkpt lat="46.40844" lon="4.87132">
        <ele>187</ele>
        <time>2020-09-22T11:29:00Z</time>
      </trkpt>
      <trkpt lat="46.40853" lon="4.87153">
        <ele>185</ele>
        <time>2020-09-22T11:29:04Z</time>
      </trkpt>
      <trkpt lat="46.40853" lon="4.87184">
        <ele>183</ele>
        <time>2020-09-22T11:29:09Z</time>
      </trkpt>
      <trkpt lat="46.40844" lon="4.87251">
        <ele>177</ele>
        <time>2020-09-22T11:29:20Z</time>
      </trkpt>
      <trkpt lat="46.4084" lon="4.87264">
        <ele>177</ele>
        <time>2020-09-22T11:29:23Z</time>
      </trkpt>
      <trkpt lat="46.40797" lon="4.87323">
        <ele>175</ele>
        <time>2020-09-22T11:29:36Z</time>
      </trkpt>
      <trkpt lat="46.40767" lon="4.87385">
        <ele>174</ele>
        <time>2020-09-22T11:29:49Z</time>
      </trkpt>
      <trkpt lat="46.40781" lon="4.87412">
        <ele>173</ele>
        <time>2020-09-22T11:29:54Z</time>
      </trkpt>
      <trkpt lat="46.40788" lon="4.87422">
        <ele>173</ele>
        <time>2020-09-22T11:29:56Z</time>
      </trkpt>
      <trkpt lat="46.40798" lon="4.8743">
        <ele>173</ele>
        <time>2020-09-22T11:29:59Z</time>
      </trkpt>
      <trkpt lat="46.40886" lon="4.87473">
        <ele>172</ele>
        <time>2020-09-22T11:30:21Z</time>
      </trkpt>
      <trkpt lat="46.40896" lon="4.87484">
        <ele>172</ele>
        <time>2020-09-22T11:30:24Z</time>
      </trkpt>
      <trkpt lat="46.40901" lon="4.87506">
        <ele>172</ele>
        <time>2020-09-22T11:30:27Z</time>
      </trkpt>
      <trkpt lat="46.40901" lon="4.87568">
        <ele>173</ele>
        <time>2020-09-22T11:30:37Z</time>
      </trkpt>
      <trkpt lat="46.40892" lon="4.87634">
        <ele>173</ele>
        <time>2020-09-22T11:30:48Z</time>
      </trkpt>
      <trkpt lat="46.40886" lon="4.87651">
        <ele>173</ele>
        <time>2020-09-22T11:30:51Z</time>
      </trkpt>
      <trkpt lat="46.40857" lon="4.87675">
        <ele>173</ele>
        <time>2020-09-22T11:30:59Z</time>
      </trkpt>
      <trkpt lat="46.40854" lon="4.87683">
        <ele>173</ele>
        <time>2020-09-22T11:31:01Z</time>
      </trkpt>
      <trkpt lat="46.4085" lon="4.8771">
        <ele>172</ele>
        <time>2020-09-22T11:31:05Z</time>
      </trkpt>
      <trkpt lat="46.40848" lon="4.87778">
        <ele>172</ele>
        <time>2020-09-22T11:31:16Z</time>
      </trkpt>
      <trkpt lat="46.40825" lon="4.87802">
        <ele>172</ele>
        <time>2020-09-22T11:31:23Z</time>
      </trkpt>
      <trkpt lat="46.40819" lon="4.87813">
        <ele>172</ele>
        <time>2020-09-22T11:31:25Z</time>
      </trkpt>
      <trkpt lat="46.40808" lon="4.87873">
        <ele>171</ele>
        <time>2020-09-22T11:31:35Z</time>
      </trkpt>
      <trkpt lat="46.40812" lon="4.87917">
        <ele>171</ele>
        <time>2020-09-22T11:31:42Z</time>
      </trkpt>
      <trkpt lat="46.40839" lon="4.88064">
        <ele>172</ele>
        <time>2020-09-22T11:32:06Z</time>
      </trkpt>
      <trkpt lat="46.40859" lon="4.88125">
        <ele>172</ele>
        <time>2020-09-22T11:32:17Z</time>
      </trkpt>
      <trkpt lat="46.40863" lon="4.88253">
        <ele>171</ele>
        <time>2020-09-22T11:32:38Z</time>
      </trkpt>
      <trkpt lat="46.40866" lon="4.88282">
        <ele>172</ele>
        <time>2020-09-22T11:32:43Z</time>
      </trkpt>
      <trkpt lat="46.4087" lon="4.88297">
        <ele>172</ele>
        <time>2020-09-22T11:32:45Z</time>
      </trkpt>
      <trkpt lat="46.40882" lon="4.8832">
        <ele>172</ele>
        <time>2020-09-22T11:32:50Z</time>
      </trkpt>
      <trkpt lat="46.4093" lon="4.88384">
        <ele>172</ele>
        <time>2020-09-22T11:33:05Z</time>
      </trkpt>
      <trkpt lat="46.40972" lon="4.88448">
        <ele>171</ele>
        <time>2020-09-22T11:33:19Z</time>
      </trkpt>
      <trkpt lat="46.40996" lon="4.88555">
        <ele>172</ele>
        <time>2020-09-22T11:33:37Z</time>
      </trkpt>
      <trkpt lat="46.41019" lon="4.88577">
        <ele>172</ele>
        <time>2020-09-22T11:33:44Z</time>
      </trkpt>
      <trkpt lat="46.41032" lon="4.88584">
        <ele>171</ele>
        <time>2020-09-22T11:33:47Z</time>
      </trkpt>
      <trkpt lat="46.41049" lon="4.88585">
        <ele>171</ele>
        <time>2020-09-22T11:33:51Z</time>
      </trkpt>
      <trkpt lat="46.41189" lon="4.88567">
        <ele>171</ele>
        <time>2020-09-22T11:34:24Z</time>
      </trkpt>
      <trkpt lat="46.41402" lon="4.88587">
        <ele>169</ele>
        <time>2020-09-22T11:35:14Z</time>
      </trkpt>
      <trkpt lat="46.41445" lon="4.88595">
        <ele>168</ele>
        <time>2020-09-22T11:35:24Z</time>
      </trkpt>
      <trkpt lat="46.41504" lon="4.8861">
        <ele>168</ele>
        <time>2020-09-22T11:35:38Z</time>
      </trkpt>
      <trkpt lat="46.4169" lon="4.88669">
        <ele>170</ele>
        <time>2020-09-22T11:36:22Z</time>
      </trkpt>
      <trkpt lat="46.41732" lon="4.88672">
        <ele>171</ele>
        <time>2020-09-22T11:36:32Z</time>
      </trkpt>
      <trkpt lat="46.41748" lon="4.88671">
        <ele>171</ele>
        <time>2020-09-22T11:36:36Z</time>
      </trkpt>
      <trkpt lat="46.41785" lon="4.88697">
        <ele>170</ele>
        <time>2020-09-22T11:36:46Z</time>
      </trkpt>
      <trkpt lat="46.41827" lon="4.88706">
        <ele>170</ele>
        <time>2020-09-22T11:36:55Z</time>
      </trkpt>
      <trkpt lat="46.41873" lon="4.88709">
        <ele>170</ele>
        <time>2020-09-22T11:37:06Z</time>
      </trkpt>
      <trkpt lat="46.42069" lon="4.88744">
        <ele>170</ele>
        <time>2020-09-22T11:37:52Z</time>
      </trkpt>
      <trkpt lat="46.42121" lon="4.88758">
        <ele>170</ele>
        <time>2020-09-22T11:38:05Z</time>
      </trkpt>
      <trkpt lat="46.42311" lon="4.88797">
        <ele>170</ele>
        <time>2020-09-22T11:38:49Z</time>
      </trkpt>
      <trkpt lat="46.42466" lon="4.88825">
        <ele>170</ele>
        <time>2020-09-22T11:39:26Z</time>
      </trkpt>
      <trkpt lat="46.42518" lon="4.8883">
        <ele>170</ele>
        <time>2020-09-22T11:39:38Z</time>
      </trkpt>
      <trkpt lat="46.42787" lon="4.88846">
        <ele>170</ele>
        <time>2020-09-22T11:40:41Z</time>
      </trkpt>
      <trkpt lat="46.4284" lon="4.88848">
        <ele>170</ele>
        <time>2020-09-22T11:40:53Z</time>
      </trkpt>
      <trkpt lat="46.42871" lon="4.88845">
        <ele>170</ele>
        <time>2020-09-22T11:41:01Z</time>
      </trkpt>
      <trkpt lat="46.42956" lon="4.88815">
        <ele>170</ele>
        <time>2020-09-22T11:41:21Z</time>
      </trkpt>
      <trkpt lat="46.42965" lon="4.88818">
        <ele>170</ele>
        <time>2020-09-22T11:41:23Z</time>
      </trkpt>
      <trkpt lat="46.42977" lon="4.88817">
        <ele>170</ele>
        <time>2020-09-22T11:41:26Z</time>
      </trkpt>
      <trkpt lat="46.4299" lon="4.88811">
        <ele>171</ele>
        <time>2020-09-22T11:41:29Z</time>
      </trkpt>
      <trkpt lat="46.43019" lon="4.88788">
        <ele>171</ele>
        <time>2020-09-22T11:41:37Z</time>
      </trkpt>
      <trkpt lat="46.43095" lon="4.88748">
        <ele>170</ele>
        <time>2020-09-22T11:41:56Z</time>
      </trkpt>
      <trkpt lat="46.43153" lon="4.8873">
        <ele>170</ele>
        <time>2020-09-22T11:42:10Z</time>
      </trkpt>
      <trkpt lat="46.43184" lon="4.88725">
        <ele>170</ele>
        <time>2020-09-22T11:42:17Z</time>
      </trkpt>
      <trkpt lat="46.43255" lon="4.88725">
        <ele>170</ele>
        <time>2020-09-22T11:42:34Z</time>
      </trkpt>
      <trkpt lat="46.43373" lon="4.88748">
        <ele>170</ele>
        <time>2020-09-22T11:43:01Z</time>
      </trkpt>
      <trkpt lat="46.43428" lon="4.88755">
        <ele>170</ele>
        <time>2020-09-22T11:43:14Z</time>
      </trkpt>
      <trkpt lat="46.43437" lon="4.88754">
        <ele>170</ele>
        <time>2020-09-22T11:43:16Z</time>
      </trkpt>
      <trkpt lat="46.43449" lon="4.88748">
        <ele>170</ele>
        <time>2020-09-22T11:43:19Z</time>
      </trkpt>
      <trkpt lat="46.4346" lon="4.88758">
        <ele>169</ele>
        <time>2020-09-22T11:43:22Z</time>
      </trkpt>
      <trkpt lat="46.43464" lon="4.88753">
        <ele>169</ele>
        <time>2020-09-22T11:43:24Z</time>
      </trkpt>
      <trkpt lat="46.43471" lon="4.88723">
        <ele>170</ele>
        <time>2020-09-22T11:43:29Z</time>
      </trkpt>
      <trkpt lat="46.43573" lon="4.88463">
        <ele>171</ele>
        <time>2020-09-22T11:44:17Z</time>
      </trkpt>
      <trkpt lat="46.43599" lon="4.88404">
        <ele>168</ele>
        <time>2020-09-22T11:44:28Z</time>
      </trkpt>
      <trkpt lat="46.43611" lon="4.88401">
        <ele>168</ele>
        <time>2020-09-22T11:44:31Z</time>
      </trkpt>
      <trkpt lat="46.43734" lon="4.88441">
        <ele>169</ele>
        <time>2020-09-22T11:45:00Z</time>
      </trkpt>
      <trkpt lat="46.43813" lon="4.88471">
        <ele>170</ele>
        <time>2020-09-22T11:45:19Z</time>
      </trkpt>
      <trkpt lat="46.43862" lon="4.88487">
        <ele>171</ele>
        <time>2020-09-22T11:45:31Z</time>
      </trkpt>
      <trkpt lat="46.43876" lon="4.88488">
        <ele>172</ele>
        <time>2020-09-22T11:45:34Z</time>
      </trkpt>
      <trkpt lat="46.4388" lon="4.88479">
        <ele>172</ele>
        <time>2020-09-22T11:45:36Z</time>
      </trkpt>
      <trkpt lat="46.43895" lon="4.88396">
        <ele>172</ele>
        <time>2020-09-22T11:45:50Z</time>
      </trkpt>
      <trkpt lat="46.43902" lon="4.8832">
        <ele>171</ele>
        <time>2020-09-22T11:46:02Z</time>
      </trkpt>
      <trkpt lat="46.43917" lon="4.88316">
        <ele>171</ele>
        <time>2020-09-22T11:46:06Z</time>
      </trkpt>
      <trkpt lat="46.43935" lon="4.8832">
        <ele>171</ele>
        <time>2020-09-22T11:46:10Z</time>
      </trkpt>
      <trkpt lat="46.44017" lon="4.88359">
        <ele>171</ele>
        <time>2020-09-22T11:46:30Z</time>
      </trkpt>
      <trkpt lat="46.44268" lon="4.88483">
        <ele>173</ele>
        <time>2020-09-22T11:47:32Z</time>
      </trkpt>
      <trkpt lat="46.44278" lon="4.88489">
        <ele>173</ele>
        <time>2020-09-22T11:47:35Z</time>
      </trkpt>
      <trkpt lat="46.44288" lon="4.88505">
        <ele>173</ele>
        <time>2020-09-22T11:47:38Z</time>
      </trkpt>
      <trkpt lat="46.44296" lon="4.88511">
        <ele>172</ele>
        <time>2020-09-22T11:47:40Z</time>
      </trkpt>
      <trkpt lat="46.44313" lon="4.88516">
        <ele>171</ele>
        <time>2020-09-22T11:47:44Z</time>
      </trkpt>
      <trkpt lat="46.44336" lon="4.88446">
        <ele>171</ele>
        <time>2020-09-22T11:47:57Z</time>
      </trkpt>
      <trkpt lat="46.44342" lon="4.88446">
        <ele>171</ele>
        <time>2020-09-22T11:47:58Z</time>
      </trkpt>
      <trkpt lat="46.44359" lon="4.88439">
        <ele>171</ele>
        <time>2020-09-22T11:48:02Z</time>
      </trkpt>
      <trkpt lat="46.44397" lon="4.88418">
        <ele>172</ele>
        <time>2020-09-22T11:48:12Z</time>
      </trkpt>
      <trkpt lat="46.4441" lon="4.88419">
        <ele>172</ele>
        <time>2020-09-22T11:48:15Z</time>
      </trkpt>
      <trkpt lat="46.44422" lon="4.88427">
        <ele>172</ele>
        <time>2020-09-22T11:48:18Z</time>
      </trkpt>
      <trkpt lat="46.44455" lon="4.88508">
        <ele>172</ele>
        <time>2020-09-22T11:48:33Z</time>
      </trkpt>
      <trkpt lat="46.44455" lon="4.88548">
        <ele>172</ele>
        <time>2020-09-22T11:48:40Z</time>
      </trkpt>
      <trkpt lat="46.44481" lon="4.88594">
        <ele>171</ele>
        <time>2020-09-22T11:48:49Z</time>
      </trkpt>
      <trkpt lat="46.44497" lon="4.88617">
        <ele>171</ele>
        <time>2020-09-22T11:48:54Z</time>
      </trkpt>
      <trkpt lat="46.44551" lon="4.88664">
        <ele>170</ele>
        <time>2020-09-22T11:49:09Z</time>
      </trkpt>
      <trkpt lat="46.4456" lon="4.88664">
        <ele>170</ele>
        <time>2020-09-22T11:49:11Z</time>
      </trkpt>
      <trkpt lat="46.44568" lon="4.8865">
        <ele>170</ele>
        <time>2020-09-22T11:49:14Z</time>
      </trkpt>
      <trkpt lat="46.44583" lon="4.8858">
        <ele>172</ele>
        <time>2020-09-22T11:49:26Z</time>
      </trkpt>
      <trkpt lat="46.44592" lon="4.88566">
        <ele>172</ele>
        <time>2020-09-22T11:49:29Z</time>
      </trkpt>
      <trkpt lat="46.44599" lon="4.88562">
        <ele>172</ele>
        <time>2020-09-22T11:49:31Z</time>
      </trkpt>
      <trkpt lat="46.44629" lon="4.88561">
        <ele>172</ele>
        <time>2020-09-22T11:49:38Z</time>
      </trkpt>
      <trkpt lat="46.44646" lon="4.88571">
        <ele>173</ele>
        <time>2020-09-22T11:49:42Z</time>
      </trkpt>
    </trkseg>
  </trk>
</gpx>